| time (UTC) | temp C | wind direction | speed KPH | gust KPH | rain 1hr cm | rain 24hr cm | rain mn cm | humidity % | barometer mb |
| 20260505101841 | 9 | 360 | 6.4 | 25.7 | 0.00 | 0.00 | 0.00 | 49 | 1003.6 |
| 20260505101347 | 9 | 17 | 14.5 | 19.3 | 0.00 | 0.00 | 0.00 | 49 | 1003.5 |
| 20260505100835 | 10 | 360 | 8.0 | 20.9 | 0.00 | 0.00 | 0.00 | 49 | 1003.2 |
| 20260505100325 | 10 | 360 | 6.4 | 25.7 | 0.00 | 0.00 | 0.00 | 49 | 1003.1 |
| 20260505095834 | 10 | 31 | 11.3 | 25.7 | 0.00 | 0.00 | 0.00 | 49 | 1002.9 |
| 20260505095340 | 10 | 360 | 11.3 | 17.7 | 0.00 | 0.00 | 0.00 | 50 | 1003.4 |
| 20260505094830 | 10 | 360 | 8.0 | 22.5 | 0.00 | 0.00 | 0.00 | 50 | 1003.3 |
| 20260505094341 | 10 | 360 | 8.0 | 22.5 | 0.00 | 0.00 | 0.00 | 50 | 1003.4 |
| 20260505093827 | 10 | 360 | 8.0 | 22.5 | 0.00 | 0.00 | 0.00 | 50 | 1003.1 |
| 20260505093336 | 10 | 360 | 11.3 | 22.5 | 0.00 | 0.00 | 0.00 | 50 | 1003.2 |
| 20260505092825 | 10 | 360 | 9.7 | 19.3 | 0.00 | 0.00 | 0.00 | 49 | 1003.1 |
| 20260505092337 | 10 | 360 | 9.7 | 22.5 | 0.00 | 0.00 | 0.00 | 50 | 1002.7 |
| 20260505091827 | 10 | 360 | 12.9 | 29.0 | 0.00 | 0.00 | 0.00 | 50 | 1003.2 |
| 20260505091338 | 10 | 360 | 11.3 | 29.0 | 0.00 | 0.00 | 0.00 | 51 | 1002.8 |
| 20260505090825 | 10 | 360 | 9.7 | 20.9 | 0.00 | 0.00 | 0.00 | 52 | 1002.5 |
| 20260505090336 | 10 | 360 | 6.4 | 25.7 | 0.00 | 0.00 | 0.00 | 52 | 1002.4 |
| 20260505085825 | 10 | 360 | 12.9 | 25.7 | 0.00 | 0.00 | 0.00 | 51 | 1002.5 |
| 20260505085400 | 10 | 360 | 11.3 | 19.3 | 0.00 | 0.00 | 0.00 | 51 | 1002.2 |
| 20260505084848 | 11 | 360 | 6.4 | 19.3 | 0.00 | 0.00 | 0.00 | 50 | 1002.4 |
| 20260505084401 | 11 | 360 | 9.7 | 19.3 | 0.00 | 0.00 | 0.00 | 50 | 1002.1 |
| 20260505083828 | 11 | 360 | 9.7 | 17.7 | 0.00 | 0.00 | 0.00 | 50 | 1001.7 |
| 20260505083333 | 11 | 360 | 9.7 | 22.5 | 0.00 | 0.00 | 0.00 | 49 | 1001.7 |
| 20260505082842 | 11 | 360 | 12.9 | 22.5 | 0.00 | 0.00 | 0.00 | 50 | 1001.7 |
| 20260505082350 | 11 | 360 | 6.4 | 19.3 | 0.00 | 0.00 | 0.00 | 51 | 1001.6 |
| 20260505081840 | 11 | 360 | 9.7 | 19.3 | 0.00 | 0.00 | 0.00 | 51 | 1001.4 |
| 20260505081331 | 12 | 360 | 6.4 | 17.7 | 0.00 | 0.00 | 0.00 | 52 | 1001.3 |
| 20260505080838 | 12 | 360 | 6.4 | 12.9 | 0.00 | 0.00 | 0.00 | 51 | 1001.2 |
| 20260505080325 | 12 | 360 | 4.8 | 19.3 | 0.00 | 0.00 | 0.00 | 50 | 1001.2 |
| 20260505075834 | 12 | 360 | 8.0 | 19.3 | 0.00 | 0.00 | 0.00 | 49 | 1000.9 |
| 20260505075325 | 12 | 360 | 9.7 | 19.3 | 0.00 | 0.00 | 0.00 | 49 | 1001.0 |
| 20260505074835 | 12 | 360 | 11.3 | 19.3 | 0.00 | 0.00 | 0.00 | 48 | 1000.8 |
| 20260505074344 | 12 | 360 | 4.8 | 19.3 | 0.00 | 0.00 | 0.00 | 48 | 1000.6 |
| 20260505073852 | 13 | 360 | 9.7 | 24.1 | 0.00 | 0.00 | 0.00 | 47 | 1000.4 |
| 20260505073339 | 13 | 360 | 11.3 | 27.4 | 0.00 | 0.00 | 0.00 | 47 | 1000.5 |
| 20260505072828 | 13 | 360 | 12.9 | 27.4 | 0.00 | 0.00 | 0.00 | 46 | 1000.5 |
| 20260505072338 | 13 | 360 | 11.3 | 20.9 | 0.00 | 0.00 | 0.00 | 46 | 1000.4 |
| 20260505071827 | 13 | 360 | 11.3 | 20.9 | 0.00 | 0.00 | 0.00 | 45 | 1000.0 |
| 20260505071337 | 13 | 360 | 8.0 | 27.4 | 0.00 | 0.00 | 0.00 | 45 | 1000.0 |
| 20260505070825 | 13 | 360 | 11.3 | 27.4 | 0.00 | 0.00 | 0.00 | 44 | 1000.2 |
| 20260505070335 | 14 | 360 | 12.9 | 22.5 | 0.00 | 0.00 | 0.00 | 44 | 1000.1 |
| 20260505065825 | 14 | 5 | 8.0 | 19.3 | 0.00 | 0.00 | 0.00 | 43 | 999.8 |
| 20260505065357 | 14 | 360 | 9.7 | 20.9 | 0.00 | 0.00 | 0.00 | 43 | 999.7 |
| 20260505064824 | 14 | 360 | 6.4 | 24.1 | 0.00 | 0.00 | 0.00 | 43 | 999.8 |
| 20260505064335 | 14 | 360 | 16.1 | 24.1 | 0.00 | 0.00 | 0.00 | 42 | 999.7 |
| 20260505063822 | 15 | 360 | 9.7 | 19.3 | 0.00 | 0.00 | 0.00 | 42 | 999.8 |
| 20260505063334 | 15 | 360 | 4.8 | 24.1 | 0.00 | 0.00 | 0.00 | 41 | 999.9 |
| 20260505062823 | 15 | 360 | 12.9 | 30.6 | 0.00 | 0.00 | 0.00 | 41 | 999.8 |
| 20260505062333 | 15 | 5 | 8.0 | 30.6 | 0.00 | 0.00 | 0.00 | 40 | 999.5 |
| 20260505061822 | 15 | 360 | 9.7 | 29.0 | 0.00 | 0.00 | 0.00 | 40 | 999.5 |
| 20260505061333 | 15 | 360 | 12.9 | 25.7 | 0.00 | 0.00 | 0.00 | 40 | 999.2 |
| 20260505060841 | 15 | 360 | 9.7 | 20.9 | 0.00 | 0.00 | 0.00 | 39 | 999.2 |
| 20260505060353 | 15 | 360 | 8.0 | 19.3 | 0.00 | 0.00 | 0.00 | 39 | 999.3 |
| 20260505055841 | 15 | 360 | 9.7 | 14.5 | 0.00 | 0.00 | 0.00 | 39 | 999.3 |
| 20260505055330 | 15 | 360 | 8.0 | 19.3 | 0.00 | 0.00 | 0.00 | 39 | 999.3 |
| 20260505054839 | 15 | 360 | 8.0 | 24.1 | 0.00 | 0.00 | 0.00 | 38 | 999.2 |
| 20260505054350 | 15 | 360 | 8.0 | 24.1 | 0.00 | 0.00 | 0.00 | 38 | 999.2 |
| 20260505053836 | 15 | 360 | 6.4 | 17.7 | 0.00 | 0.00 | 0.00 | 39 | 999.2 |
| 20260505053328 | 15 | 360 | 9.7 | 20.9 | 0.00 | 0.00 | 0.00 | 39 | 999.1 |
| 20260505052839 | 15 | 360 | 9.7 | 20.9 | 0.00 | 0.00 | 0.00 | 38 | 999.1 |
| 20260505052328 | 16 | 360 | 12.9 | 22.5 | 0.00 | 0.00 | 0.00 | 39 | 999.1 |
| 20260505051831 | 16 | 360 | 9.7 | 22.5 | 0.00 | 0.00 | 0.00 | 39 | 999.0 |
| 20260505051323 | 16 | 360 | 11.3 | 17.7 | 0.00 | 0.00 | 0.00 | 40 | 998.8 |
| 20260505050831 | 16 | 360 | 4.8 | 20.9 | 0.00 | 0.00 | 0.00 | 41 | 998.7 |
| 20260505050342 | 16 | 360 | 11.3 | 20.9 | 0.00 | 0.00 | 0.00 | 40 | 998.5 |
| 20260505041332 | 17 | 360 | 9.7 | 30.6 | 0.00 | 0.00 | 0.00 | 40 | 998.2 |
| 20260505040839 | 17 | 360 | 9.7 | 32.2 | 0.00 | 0.00 | 0.00 | 40 | 998.0 |
| 20260505040329 | 17 | 360 | 14.5 | 32.2 | 0.00 | 0.00 | 0.00 | 39 | 998.0 |
| 20260505035840 | 17 | 360 | 12.9 | 22.5 | 0.00 | 0.00 | 0.00 | 41 | 997.9 |
| 20260505035332 | 17 | 360 | 6.4 | 14.5 | 0.00 | 0.00 | 0.00 | 42 | 997.7 |
| 20260505034843 | 18 | 360 | 9.7 | 14.5 | 0.00 | 0.00 | 0.00 | 41 | 997.7 |
| 20260505034356 | 18 | 360 | 4.8 | 9.7 | 0.00 | 0.00 | 0.00 | 40 | 997.7 |
| 20260505033823 | 18 | 360 | 4.8 | 12.9 | 0.00 | 0.00 | 0.00 | 40 | 997.5 |
| 20260505033359 | 18 | 360 | 4.8 | 16.1 | 0.00 | 0.00 | 0.00 | 39 | 997.4 |
| 20260505032848 | 18 | 360 | 9.7 | 16.1 | 0.00 | 0.00 | 0.00 | 39 | 997.4 |
| 20260505032357 | 19 | 229 | 4.8 | 17.7 | 0.00 | 0.00 | 0.00 | 39 | 997.4 |
| 20260505031826 | 19 | 360 | 6.4 | 19.3 | 0.00 | 0.00 | 0.00 | 40 | 997.3 |
| 20260505031337 | 18 | 360 | 9.7 | 19.3 | 0.00 | 0.00 | 0.00 | 45 | 997.2 |
| 20260505030844 | 18 | 360 | 6.4 | 12.9 | 0.00 | 0.00 | 0.00 | 48 | 997.3 |
| 20260505030333 | 18 | 360 | 4.8 | 9.7 | 0.00 | 0.00 | 0.00 | 52 | 997.3 |
| 20260505025841 | 18 | 360 | 3.2 | 9.7 | 0.00 | 0.00 | 0.00 | 56 | 997.3 |
| 20260505025329 | 18 | 360 | 3.2 | 12.9 | 0.00 | 0.00 | 0.00 | 60 | 997.1 |
| 20260505024840 | 18 | 360 | 8.0 | 19.3 | 0.00 | 0.00 | 0.00 | 62 | 997.2 |
| 20260505024331 | 18 | 360 | 12.9 | 22.5 | 0.00 | 0.00 | 0.00 | 63 | 997.0 |
| 20260505023839 | 18 | 360 | 14.5 | 22.5 | 0.00 | 0.00 | 0.00 | 64 | 997.0 |
| 20260505023329 | 18 | 360 | 8.0 | 19.3 | 0.00 | 0.00 | 0.00 | 65 | 996.7 |
| 20260505022840 | 18 | 360 | 11.3 | 20.9 | 0.00 | 0.00 | 0.00 | 66 | 996.4 |
| 20260505022328 | 18 | 360 | 17.7 | 22.5 | 0.00 | 0.00 | 0.00 | 66 | 996.4 |
| 20260505021900 | 18 | 360 | 14.5 | 22.5 | 0.00 | 0.00 | 0.00 | 67 | 996.2 |
| 20260505021348 | 18 | 360 | 16.1 | 20.9 | 0.00 | 0.00 | 0.00 | 67 | 996.4 |
| 20260505020855 | 18 | 360 | 9.7 | 22.5 | 0.00 | 0.00 | 0.00 | 67 | 996.2 |
| 20260505020343 | 18 | 360 | 11.3 | 22.5 | 0.00 | 0.00 | 0.00 | 67 | 996.0 |
| 20260505015833 | 18 | 360 | 11.3 | 19.3 | 0.00 | 0.00 | 0.00 | 66 | 995.8 |
| 20260505015322 | 18 | 360 | 11.3 | 25.7 | 0.00 | 0.00 | 0.00 | 65 | 995.8 |
| 20260505014831 | 18 | 360 | 14.5 | 25.7 | 0.00 | 0.00 | 0.00 | 65 | 995.3 |
| 20260505014341 | 19 | 360 | 11.3 | 17.7 | 0.00 | 0.00 | 0.00 | 64 | 995.4 |
| 20260505013828 | 19 | 360 | 12.9 | 20.9 | 0.00 | 0.00 | 0.00 | 63 | 995.3 |
| 20260505013334 | 19 | 360 | 14.5 | 25.7 | 0.00 | 0.00 | 0.00 | 62 | 995.0 |
| 20260505012822 | 20 | 360 | 11.3 | 25.7 | 0.00 | 0.00 | 0.00 | 60 | 995.0 |
| 20260505012332 | 20 | 360 | 17.7 | 29.0 | 0.00 | 0.00 | 0.00 | 59 | 995.0 |
| 20260505011841 | 20 | 360 | 16.1 | 30.6 | 0.00 | 0.00 | 0.00 | 56 | 994.9 |
| 20260505011333 | 20 | 360 | 19.3 | 29.0 | 0.00 | 0.00 | 0.00 | 55 | 995.0 |
| 20260505010841 | 20 | 360 | 14.5 | 25.7 | 0.00 | 0.00 | 0.00 | 54 | 994.9 |
| 20260505010332 | 20 | 360 | 17.7 | 27.4 | 0.00 | 0.00 | 0.00 | 53 | 995.0 |
| 20260505005822 | 21 | 360 | 14.5 | 27.4 | 0.00 | 0.00 | 0.00 | 51 | 995.0 |
| 20260505005333 | 21 | 360 | 16.1 | 20.9 | 0.00 | 0.00 | 0.00 | 49 | 994.7 |
| 20260505004824 | 21 | 360 | 11.3 | 16.1 | 0.00 | 0.00 | 0.00 | 46 | 994.4 |
| 20260505004336 | 21 | 360 | 8.0 | 16.1 | 0.00 | 0.00 | 0.00 | 46 | 994.1 |
| 20260505003824 | 21 | 360 | 9.7 | 19.3 | 0.00 | 0.00 | 0.00 | 45 | 993.9 |
| 20260505003326 | 22 | 360 | 12.9 | 19.3 | 0.00 | 0.00 | 0.00 | 44 | 993.9 |
| 20260505002835 | 22 | 360 | 14.5 | 22.5 | 0.00 | 0.00 | 0.00 | 43 | 993.9 |
| 20260505002325 | 22 | 360 | 14.5 | 33.8 | 0.00 | 0.00 | 0.00 | 42 | 993.7 |
| 20260505001837 | 22 | 360 | 16.1 | 33.8 | 0.00 | 0.00 | 0.00 | 42 | 993.8 |
| 20260505001328 | 22 | 360 | 17.7 | 27.4 | 0.00 | 0.00 | 0.00 | 42 | 993.6 |
| 20260505000902 | 22 | 360 | 14.5 | 22.5 | 0.00 | 0.00 | 0.00 | 41 | 993.6 |
| 20260505000329 | 22 | 360 | 11.3 | 22.5 | 0.00 | 0.00 | 0.00 | 40 | 993.5 |
| 20260504235837 | 22 | 360 | 14.5 | 22.5 | 0.00 | 0.00 | 0.00 | 39 | 993.5 |
| 20260504235326 | 22 | 360 | 16.1 | 22.5 | 0.00 | 0.00 | 0.00 | 40 | 993.6 |
| 20260504234836 | 22 | 360 | 9.7 | 20.9 | 0.00 | 0.00 | 0.00 | 41 | 993.5 |
| 20260504234348 | 22 | 360 | 14.5 | 20.9 | 0.00 | 0.00 | 0.00 | 41 | 993.6 |
| 20260504233834 | 22 | 360 | 14.5 | 20.9 | 0.00 | 0.00 | 0.00 | 41 | 993.7 |
| 20260504233325 | 22 | 360 | 11.3 | 27.4 | 0.00 | 0.00 | 0.00 | 41 | 993.6 |
| 20260504232900 | 22 | 360 | 16.1 | 27.4 | 0.00 | 0.00 | 0.00 | 42 | 993.8 |
| 20260504232328 | 22 | 360 | 16.1 | 32.2 | 0.00 | 0.00 | 0.00 | 43 | 994.0 |
| 20260504231836 | 22 | 360 | 17.7 | 33.8 | 0.00 | 0.00 | 0.00 | 43 | 994.0 |
| 20260504231325 | 22 | 360 | 20.9 | 37.0 | 0.00 | 0.00 | 0.00 | 43 | 994.1 |
| 20260504230832 | 22 | 360 | 24.1 | 37.0 | 0.00 | 0.00 | 0.00 | 42 | 994.3 |
| 20260504230322 | 22 | 360 | 20.9 | 32.2 | 0.00 | 0.00 | 0.00 | 42 | 994.3 |
| 20260504225829 | 23 | 360 | 14.5 | 29.0 | 0.00 | 0.00 | 0.00 | 41 | 994.5 |
| 20260504225339 | 23 | 360 | 19.3 | 32.2 | 0.00 | 0.00 | 0.00 | 39 | 994.3 |
| 20260504224828 | 23 | 360 | 17.7 | 48.3 | 0.00 | 0.00 | 0.00 | 38 | 994.5 |
| 20260504224340 | 25 | 360 | 24.1 | 48.3 | 0.00 | 0.00 | 0.00 | 34 | 994.5 |
| 20260504223829 | 25 | 360 | 20.9 | 41.8 | 0.00 | 0.00 | 0.00 | 34 | 994.3 |
| 20260504223339 | 25 | 360 | 16.1 | 27.4 | 0.00 | 0.00 | 0.00 | 35 | 994.3 |
| 20260504222829 | 25 | 360 | 19.3 | 24.1 | 0.00 | 0.00 | 0.00 | 34 | 994.3 |
| 20260504222339 | 25 | 360 | 14.5 | 33.8 | 0.00 | 0.00 | 0.00 | 34 | 994.2 |
| 20260504221850 | 25 | 360 | 17.7 | 40.2 | 0.00 | 0.00 | 0.00 | 33 | 994.3 |
| 20260504221341 | 25 | 360 | 27.4 | 40.2 | 0.00 | 0.00 | 0.00 | 32 | 994.4 |
| 20260504220826 | 26 | 360 | 16.1 | 46.7 | 0.00 | 0.00 | 0.00 | 32 | 994.4 |
| 20260504220336 | 26 | 360 | 24.1 | 46.7 | 0.00 | 0.00 | 0.00 | 30 | 994.3 |
| 20260504215826 | 26 | 360 | 24.1 | 37.0 | 0.00 | 0.00 | 0.00 | 31 | 994.2 |
| 20260504215402 | 26 | 360 | 27.4 | 41.8 | 0.00 | 0.00 | 0.00 | 30 | 994.3 |
| 20260504214829 | 26 | 360 | 27.4 | 41.8 | 0.00 | 0.00 | 0.00 | 30 | 994.4 |
| 20260504214341 | 26 | 360 | 24.1 | 32.2 | 0.00 | 0.00 | 0.00 | 29 | 994.4 |
| 20260504213850 | 26 | 360 | 17.7 | 41.8 | 0.00 | 0.00 | 0.00 | 29 | 994.6 |
| 20260504213339 | 26 | 360 | 30.6 | 41.8 | 0.00 | 0.00 | 0.00 | 29 | 994.5 |
| 20260504212829 | 26 | 360 | 17.7 | 33.8 | 0.00 | 0.00 | 0.00 | 30 | 994.6 |
| 20260504212332 | 26 | 360 | 25.7 | 33.8 | 0.00 | 0.00 | 0.00 | 28 | 994.7 |
| 20260504211821 | 26 | 360 | 25.7 | 33.8 | 0.00 | 0.00 | 0.00 | 28 | 994.7 |
| 20260504211334 | 26 | 360 | 19.3 | 30.6 | 0.00 | 0.00 | 0.00 | 28 | 994.8 |
| 20260504210823 | 25 | 360 | 19.3 | 30.6 | 0.00 | 0.00 | 0.00 | 28 | 994.9 |
| 20260504210333 | 26 | 360 | 14.5 | 35.4 | 0.00 | 0.00 | 0.00 | 28 | 994.9 |
| 20260504205824 | 26 | 360 | 25.7 | 37.0 | 0.00 | 0.00 | 0.00 | 28 | 995.0 |
| 20260504205334 | 26 | 360 | 22.5 | 38.6 | 0.00 | 0.00 | 0.00 | 27 | 995.0 |
| 20260504204822 | 26 | 360 | 19.3 | 38.6 | 0.00 | 0.00 | 0.00 | 28 | 995.1 |
| 20260504204335 | 26 | 360 | 25.7 | 38.6 | 0.00 | 0.00 | 0.00 | 28 | 995.0 |
| 20260504203842 | 26 | 193 | 29.0 | 38.6 | 0.00 | 0.00 | 0.00 | 28 | 995.2 |
| 20260504203331 | 26 | 360 | 19.3 | 48.3 | 0.00 | 0.00 | 0.00 | 29 | 995.2 |
| 20260504202908 | 26 | 360 | 19.3 | 48.3 | 0.00 | 0.00 | 0.00 | 29 | 995.3 |
| 20260504202356 | 26 | 360 | 17.7 | 30.6 | 0.00 | 0.00 | 0.00 | 30 | 995.3 |
| 20260504201824 | 25 | 360 | 20.9 | 46.7 | 0.00 | 0.00 | 0.00 | 28 | 995.3 |
| 20260504201337 | 25 | 360 | 33.8 | 46.7 | 0.00 | 0.00 | 0.00 | 27 | 995.3 |
| 20260504200824 | 25 | 360 | 19.3 | 35.4 | 0.00 | 0.00 | 0.00 | 28 | 995.4 |
| 20260504200331 | 25 | 360 | 19.3 | 38.6 | 0.00 | 0.00 | 0.00 | 28 | 995.6 |
| 20260504195839 | 25 | 360 | 14.5 | 46.7 | 0.00 | 0.00 | 0.00 | 28 | 995.7 |
| 20260504195326 | 25 | 360 | 30.6 | 46.7 | 0.00 | 0.00 | 0.00 | 27 | 995.7 |
| 20260504194835 | 25 | 360 | 19.3 | 41.8 | 0.00 | 0.00 | 0.00 | 28 | 995.8 |
| 20260504194327 | 25 | 360 | 32.2 | 41.8 | 0.00 | 0.00 | 0.00 | 28 | 995.9 |
| 20260504193831 | 25 | 360 | 24.1 | 37.0 | 0.00 | 0.00 | 0.00 | 26 | 996.1 |
| 20260504193341 | 25 | 360 | 19.3 | 37.0 | 0.00 | 0.00 | 0.00 | 28 | 996.1 |
| 20260504192850 | 25 | 360 | 24.1 | 37.0 | 0.00 | 0.00 | 0.00 | 29 | 996.2 |
| 20260504192338 | 25 | 360 | 27.4 | 38.6 | 0.00 | 0.00 | 0.00 | 29 | 996.2 |
| 20260504191825 | 25 | 360 | 11.3 | 38.6 | 0.00 | 0.00 | 0.00 | 31 | 996.3 |
| 20260504191335 | 25 | 360 | 19.3 | 43.5 | 0.00 | 0.00 | 0.00 | 31 | 996.2 |
| 20260504190843 | 25 | 360 | 30.6 | 43.5 | 0.00 | 0.00 | 0.00 | 30 | 996.4 |
| 20260504190400 | 25 | 360 | 27.4 | 43.5 | 0.00 | 0.00 | 0.00 | 29 | 996.3 |
| 20260504185826 | 25 | 360 | 22.5 | 38.6 | 0.00 | 0.00 | 0.00 | 31 | 996.2 |
| 20260504185402 | 24 | 360 | 29.0 | 41.8 | 0.00 | 0.00 | 0.00 | 30 | 996.1 |
| 20260504184828 | 24 | 360 | 22.5 | 45.1 | 0.00 | 0.00 | 0.00 | 32 | 996.3 |
| 20260504184339 | 24 | 360 | 30.6 | 45.1 | 0.00 | 0.00 | 0.00 | 30 | 996.4 |
| 20260504183827 | 24 | 360 | 24.1 | 41.8 | 0.00 | 0.00 | 0.00 | 30 | 996.4 |
| 20260504183336 | 24 | 360 | 25.7 | 43.5 | 0.00 | 0.00 | 0.00 | 31 | 996.4 |
| 20260504182847 | 24 | 360 | 25.7 | 43.5 | 0.00 | 0.00 | 0.00 | 30 | 996.5 |
| 20260504182331 | 24 | 360 | 30.6 | 41.8 | 0.00 | 0.00 | 0.00 | 31 | 996.4 |
| 20260504181833 | 24 | 360 | 27.4 | 38.6 | 0.00 | 0.00 | 0.00 | 31 | 996.5 |
| 20260504181325 | 23 | 360 | 19.3 | 40.2 | 0.00 | 0.00 | 0.00 | 32 | 996.5 |
| 20260504180831 | 23 | 360 | 22.5 | 41.8 | 0.00 | 0.00 | 0.00 | 30 | 996.6 |
| 20260504180339 | 23 | 360 | 27.4 | 43.5 | 0.00 | 0.00 | 0.00 | 32 | 996.7 |
| 20260504175827 | 23 | 360 | 32.2 | 43.5 | 0.00 | 0.00 | 0.00 | 32 | 996.7 |
| 20260504175337 | 23 | 360 | 30.6 | 41.8 | 0.00 | 0.03 | 0.00 | 34 | 996.7 |
| 20260504174825 | 23 | 360 | 22.5 | 48.3 | 0.00 | 0.03 | 0.00 | 32 | 996.7 |
| 20260504174343 | 23 | 360 | 29.0 | 48.3 | 0.00 | 0.03 | 0.00 | 31 | 996.8 |
| 20260504173830 | 23 | 360 | 30.6 | 43.5 | 0.00 | 0.03 | 0.00 | 34 | 996.9 |
| 20260504173339 | 23 | 360 | 29.0 | 43.5 | 0.00 | 0.03 | 0.00 | 33 | 996.9 |
| 20260504172828 | 23 | 360 | 24.1 | 40.2 | 0.00 | 0.03 | 0.00 | 33 | 997.0 |
| 20260504172336 | 23 | 360 | 25.7 | 43.5 | 0.00 | 0.03 | 0.00 | 32 | 997.1 |
| 20260504171825 | 23 | 360 | 35.4 | 43.5 | 0.00 | 0.03 | 0.00 | 32 | 997.2 |
| 20260504171336 | 23 | 360 | 25.7 | 35.4 | 0.00 | 0.03 | 0.00 | 32 | 997.3 |
| 20260504170822 | 22 | 360 | 22.5 | 33.8 | 0.00 | 0.03 | 0.00 | 36 | 997.4 |
| 20260504170331 | 22 | 360 | 17.7 | 41.8 | 0.00 | 0.03 | 0.00 | 35 | 997.6 |
| 20260504160332 | 21 | 360 | 19.3 | 35.4 | 0.00 | 0.03 | 0.00 | 39 | 998.2 |
| 20260504150824 | 21 | 360 | 17.7 | 27.4 | 0.00 | 0.03 | 0.00 | 38 | 999.0 |
| 20260504150334 | 20 | 360 | 16.1 | 29.0 | 0.00 | 0.03 | 0.00 | 39 | 999.0 |
| 20260504141332 | 19 | 360 | 14.5 | 25.7 | 0.00 | 0.03 | 0.00 | 43 | 999.3 |
| 20260504140839 | 18 | 360 | 12.9 | 17.7 | 0.00 | 0.03 | 0.00 | 43 | 999.4 |
| 20260504140327 | 18 | 360 | 11.3 | 17.7 | 0.00 | 0.03 | 0.00 | 44 | 999.5 |
| 20260504130327 | 15 | 360 | 9.7 | 14.5 | 0.00 | 0.03 | 0.00 | 57 | 1000.3 |
| 20260504110343 | 10 | 360 | 9.7 | 14.5 | 0.00 | 0.03 | 0.00 | 74 | 1000.4 |